Location: Standeford and Andreas Observatories
(44.1397°N, 93.9969°W)
Time: 12:31:57
(UTC-05:00)

Cosmos 1500 Rocket - Visible Passes

Search period start: 25 July 2014 00:00
Search period end: 04 August 2014 00:00
Orbit: 604 x 635 km, 82.5° (Epoch: 23 July)

Date Brightness Start Highest point End Pass type
(mag) Time Alt. Az. Time Alt. Az. Time Alt. Az.
25 Jul 4.9 01:57:34 10° NNE 02:01:22 30° ENE 02:01:58 28° E visible
25 Jul 4.8 03:35:37 10° NW 03:39:06 24° W 03:39:06 24° W visible
26 Jul 3.9 02:14:43 10° N 02:18:58 54° E 02:19:02 54° E visible
26 Jul 5.6 03:54:12 10° NW 03:56:11 14° W 03:56:11 14° W visible
27 Jul 6.2 00:57:28 10° ENE 00:57:58 10° ENE 00:58:28 10° ENE visible
27 Jul 3.5 02:32:07 10° N 02:36:08 73° NW 02:36:08 73° NW visible
28 Jul 5.6 01:12:46 10° NNE 01:15:46 18° ENE 01:16:07 18° ENE visible
28 Jul 4.3 02:49:46 10° NNW 02:53:15 39° WNW 02:53:15 39° WNW visible
29 Jul 4.9 01:29:34 10° N 01:33:14 31° ENE 01:33:14 31° ENE visible
29 Jul 5.2 03:07:44 10° NW 03:10:23 22° WNW 03:10:23 22° WNW visible
30 Jul 4.2 01:46:45 10° N 01:50:23 52° NE 01:50:23 52° NE visible
30 Jul 5.8 03:26:27 10° WNW 03:27:32 12° WNW 03:27:32 12° WNW visible
31 Jul 6.1 00:28:55 10° NE 00:30:04 11° ENE 00:30:24 11° ENE visible
31 Jul 4.1 02:04:10 10° NNW 02:07:33 52° NNW 02:07:33 52° NNW visible
01 Aug 5.6 00:44:43 10° NNE 00:47:35 19° ENE 00:47:35 19° ENE visible
01 Aug 4.8 02:21:51 10° NNW 02:24:44 32° NW 02:24:44 32° NW visible
02 Aug 5.0 01:01:34 10° N 01:04:46 31° NE 01:04:46 31° NE visible
02 Aug 5.5 02:39:52 10° NW 02:41:55 19° WNW 02:41:55 19° WNW visible
03 Aug 4.5 01:18:46 10° N 01:21:58 45° NNE 01:21:58 45° NNE visible
03 Aug 6.0 02:58:43 10° WNW 02:59:07 11° WNW 02:59:07 11° WNW visible
